Location: Breitenfeld
(46.8500°N, 15.6333°E)
Time: 22:53:06
(UTC+00:00)

Tiangong - Visible Passes

Search period start: 26 November 2022 00:00
Search period end: 06 December 2022 00:00
Orbit: 387 x 394 km, 41.5° (Epoch: 26 November)

Date Brightness Start Highest point End Pass type
(mag) Time Alt. Az. Time Alt. Az. Time Alt. Az.
30 Nov 0.2 17:07:01 10° SSW 17:08:38 15° SSE 17:08:38 15° SSE visible
01 Dec 0.5 16:10:27 10° S 16:11:23 11° SSE 16:12:19 10° SE visible
01 Dec 0.6 17:44:58 10° SW 17:45:52 16° SW 17:45:52 16° SW visible
02 Dec -0.3 16:47:25 10° SW 16:49:56 21° SSE 16:50:43 19° SE visible
03 Dec 0.2 15:50:04 10° SSW 15:52:10 16° SSE 15:54:17 10° ESE visible
03 Dec -0.3 17:25:46 10° WSW 17:27:50 26° SSW 17:27:50 26° SSW visible
04 Dec -0.5 16:28:00 10° SW 16:30:45 27° S 16:32:37 16° ESE visible
04 Dec 1.2 18:04:29 10° WSW 18:04:56 13° WSW 18:04:56 13° WSW visible
05 Dec -0.8 17:06:32 10° WSW 17:09:24 30° S 17:09:41 30° S visible
